Regional Weather Roundup
Issued by NWS

Home | Current Version | Previous Version | Text Only | Print | Product List | Glossary On
Versions: 1 2 3 4 5 6 7 8 9 10 11 12 13 14 15 16 17 18 19 20 21 22 23 24 25 26 27 28 29 30 31 32 33 34 35 36 37 38 39 40 41 42 43 44 45 46 47 48 49 50
000
ASUS44 KFWD 260415
RWRTX
NORTH TEXAS HOURLY WEATHER ROUNDUP
NATIONAL WEATHER SERVICE FORT WORTH TX
1100 PM CDT MON JUL 25 2016

NOTE: "FAIR" INDICATES FEW OR NO CLOUDS BELOW 12,000 FEET WITH NO
SIGNIFICANT WEATHER AND/OR OBSTRUCTIONS TO VISIBILITY.

TXZ118-119-260500-
DALLAS/FORT WORTH METROPLEX

CITY           SKY/WX    TMP DP  RH WIND       PRES   REMARKS
DFW AIRPORT    CLOUDY    81  72  74 SE7       29.94R
DALLAS LOVE    MOCLDY    83  73  72 S10       29.95R
FTW MEACHAM    PTCLDY    84  71  65 S8        29.94S
DAL-EXECUTIVE  CLOUDY    80  72  76 S5        29.95R
FTW-ALLIANCE   CLOUDY    80  71  74 S8        29.93F
FTW-NAS-JRB    MOCLDY    83  71  67 S8        29.95S
FTW-SPINKS     PTCLDY    79  71  76 S3        29.96F
ARLINGTON      CLOUDY    81  72  74 S6        29.95S
GRAND PRAIRIE  MOCLDY    82  71  68 S5        29.97R
ADDISON        PTCLDY    81  75  82 S8        29.97S
MESQUITE       MOCLDY    76  74  95 SE7       29.95S
LANCASTER      CLOUDY    80  73  77 CALM      29.96S
$$

TXZ091>094-102>105-117-120-121-131>134-260500-
NORTH CENTRAL TEXAS

CITY           SKY/WX    TMP DP  RH WIND       PRES   REMARKS
SHRMAN/DENISON MOCLDY    82  72  72 SE9       29.95F
GAINESVILLE    PTCLDY    78  71  78 S3        29.96F
BOWIE          CLEAR     79  72  79 SE5       29.96F
BRIDGEPORT     CLEAR     82  72  73 S3        29.96F
DECATUR        CLOUDY    79  69  72 SE5       29.97S
DENTON         PTCLDY    80  69  69 SE5       29.94F
MCKINNEY       PTCLDY    78  72  81 CALM      29.95S
GREENVILLE     MOCLDY    77  73  88 CALM      29.95S
ROCKWALL       PTCLDY    77  74  92 CALM      29.93F
TERRELL        CLOUDY    77  73  87 S6        29.96R
WAXAHACHIE     PTCLDY    77  73  87 SE6       29.97S
CLEBURNE       CLOUDY    77  75  94 CALM      29.97F
GRANBURY       PTCLDY    83  69  64 SE6       29.97F
$$

TXZ083>090-098>101-113>116-127>130-139>142-154-155-260500-
WESTERN NORTH TEXAS

CITY           SKY/WX    TMP DP  RH WIND       PRES   REMARKS
WICHITA FALLS  CLEAR     83  71  67 S10       29.94R
WF-KICKAPOO    CLEAR     86  70  58 SE8       29.96R HX  90
VERNON         PTCLDY    87  64  46 SE6       29.97R
ABILENE        CLEAR     84  67  56 SE16      30.00R
ABILENE-DYESS  CLEAR     87  67  52 SE17      29.98R
CISCO          PTCLDY    81  68  65 SE13G18   30.01R
BRECKENRIDGE   CLEAR     85  68  56 SE9       29.96S
GRAHAM         CLEAR     85  70  61 SE8       29.95S
MINERAL WELLS  CLEAR     81  71  71 SE8       29.94F
STEPHENVILLE   CLOUDY    78  69  73 CALM      30.01S
COMANCHE       CLOUDY    77  71  81 SE8       30.00R
BROWNWOOD      CLOUDY    79  68  69 SE10      29.99S
COLEMAN        CLEAR     82  66  59 SE14G20   30.01R
$$

TXZ143>147-156>162-174-175-260500-
CENTRAL TEXAS

CITY           SKY/WX    TMP DP  RH WIND       PRES   REMARKS
WACO           CLOUDY    75  70  84 SW5       29.95S
WACO-TSTC      CLEAR     75  73  94 CALM      29.95F
WACO-MCGREGOR  PTCLDY    76  71  85 CALM      29.96R
HILLSBORO      MOCLDY    75  72  91 CALM      29.96S
CORSICANA      MOCLDY    78  73  84 CALM      29.97S
MEXIA          CLOUDY    73  73  98 CALM      29.94F
HEARNE         CLOUDY    76  75  96 CALM      29.95S
CAMERON        CLOUDY    77  74  90 CALM      29.94S
TEMPLE         MOCLDY    77  73  87 SW3       29.96S
KILLEEN        MOCLDY    75  72  89 S5        29.96S
KILLEEN-SKYLRK MOCLDY    76  73  91 S3        29.96S
FORT HOOD      MOCLDY    74  72  92 S3        29.94S
GATESVILLE     CLOUDY    77  72  83 CALM      29.99F
HAMILTON       CLOUDY    76  71  83 S8        29.99F
LAMPASAS       PTCLDY    76  73  92 CALM      29.98S
$$

TXZ095>097-106>112-122>126-135>138-148>153-164>167-260500-
EAST TEXAS

CITY           SKY/WX    TMP DP  RH WIND       PRES   REMARKS
PARIS          CLOUDY    81  66  61 CALM      29.95F
SULPHUR SPRNGS CLOUDY    77  76  94 CALM      29.96S
MOUNT PLEASANT PTCLDY    80  72  77 SE5       29.95S
GILMER         CLOUDY    80  73  79 S3        29.95F
MINEOLA        CLOUDY    75  73  94 CALM      29.96S
TYLER          CLOUDY    79  73  82 CALM      29.95F
LONGVIEW       CLEAR     77  73  87 SW3       29.93F
MARSHALL       CLEAR     77  70  78 CALM      29.96F
ATHENS         CLOUDY    77  77 100 CALM      29.94S
PALESTINE      CLOUDY    77  76  97 CALM      29.95F
JACKSONVILLE   MOCLDY    75  74  96 S3        29.96F
HENDERSON      PTCLDY    73  73 100 CALM      29.95F
CENTER         CLOUDY    77  76  96 CALM      29.94S
NACOGDOCHES    PTCLDY   N/A N/A N/A CALM      29.91F
LUFKIN         PTCLDY    76  75  97 S3        29.91F
$$

SUPPLEMENTAL OBSERVATIONS (CENTRAL)

CITY           SKY/WX    TMP DP  RH WIND       PRES   REMARKS
DENISON DAM      N/A     81  73  78 SE3         N/A
CADDO GRASSLND   N/A     81  73  78 S2          N/A
PAT MAYSE LAKE   N/A     79  73  83 NE1         N/A
GREENVILLE       N/A     75  72  88 SW1         N/A
CEDAR HILL       N/A     79  70  73 S3          N/A
ATHENS           N/A     79  75  89 SW1         N/A
MCGREGOR         N/A     73  70  88 S1          N/A
TEMPLE           N/A     75  72  88 S2          N/A
$$

SUPPLEMENTAL OBSERVATIONS (WEST)

CITY           SKY/WX    TMP DP  RH WIND       PRES   REMARKS
MILLERS CREEK    N/A     88  68  51 SE10        N/A  HX  91
POSSUM KINGDOM   N/A     84  68  58 SE7G16      N/A
LBJ GRASSLAND    N/A     81  72  74 E3          N/A
GRANBURY         N/A     82  70  65 SE7         N/A
HAMBY            N/A     84  66  54 SE12G20     N/A
IVIE RESERVOIR   N/A     81  66  61 SE15G22     N/A
COLORADO BEND    N/A     75  70  83 SW2         N/A
$$

SUPPLEMENTAL OBSERVATIONS (EAST)

CITY           SKY/WX    TMP DP  RH WIND       PRES   REMARKS
CLARKSVILLE      N/A     81  73  78 CALM        N/A
TEXARKANA        N/A     77  75  94 CALM        N/A
LINDEN           N/A     81  73  78 SW2         N/A
GILMER           N/A     81  73  78 S1G10       N/A
HENDERSON        N/A     73  70  88 CALM        N/A
LUFKIN           N/A     77  75  94 MISG        N/A
N SABINE NF      N/A     75  72  88 MISG        N/A
S SABINE NF      N/A     73  72  94 SE1         N/A
$$

SUPPLEMENTAL OBSERVATIONS ARE A COLLECTION OF AUTOMATED INSTRUMENTS
THAT ARE MAINTAINED BY A VARIETY OF FEDERAL AND STATE AGENCIES.
CERTAIN ELEMENTS...SUCH AS HUMIDITY VALUES AND SUSTAINED WIND
SPEEDS...MAY BE APPROXIMATED.





USA.gov is the U.S. government's official web portal to all federal, state and local government web resources and services.